Location: Brahman Valley
(40.6513°N, 111.8855°W)
Time: 02:18:40
(UTC+00:00)

Explorer 11/Cluster Stage 4 - All Passes

Search period start: 12 May 2021 00:00
Search period end: 22 May 2021 00:00
Orbit: 467 x 1257 km, 28.8° (Epoch: 11 May)

Date Brightness Start Highest point End Pass type
(mag) Time Alt. Az. Time Alt. Az. Time Alt. Az.
12 May - 02:10:53 10° SSE 02:12:40 11° SSE 02:14:28 10° SE daylight
12 May - 03:54:31 10° SSW 04:00:48 24° SSE 04:06:50 10° ESE visible
12 May - 05:42:15 10° WSW 05:49:16 33° S 05:55:35 10° ESE visible
12 May - 07:31:20 10° WSW 07:37:36 28° SSW 07:43:04 10° SE night (unlit)
12 May - 09:22:15 10° SW 09:25:21 14° SSW 09:28:13 10° S night (unlit)
13 May - 01:58:12 10° S 02:01:19 13° SSE 02:04:29 10° SE daylight
13 May - 03:42:58 10° SW 03:49:29 26° SSE 03:55:50 10° ESE visible
13 May - 05:30:50 10° WSW 05:37:59 34° S 05:44:32 10° ESE visible
13 May - 07:20:01 10° WSW 07:26:21 27° SSW 07:31:56 10° SE visible
13 May - 09:11:18 10° SW 09:14:06 13° SSW 09:16:42 10° S night (unlit)
14 May - 01:46:06 10° S 01:49:58 14° SSE 01:53:56 10° ESE daylight
14 May - 03:31:28 10° SW 03:38:09 28° SSE 03:44:45 10° ESE visible
14 May - 05:19:27 10° WSW 05:26:41 35° S 05:33:24 10° ESE visible
14 May - 07:08:42 10° WSW 07:15:04 27° SSW 07:20:45 10° SE visible
14 May - 09:00:32 10° SW 09:02:49 12° SSW 09:05:00 10° SSW night (unlit)
15 May - 01:34:15 10° S 01:38:37 16° SSE 01:43:09 10° ESE daylight
15 May - 03:20:03 10° SW 03:26:48 30° SSE 03:33:37 10° ESE visible
15 May - 05:08:07 10° WSW 05:15:22 35° S 05:22:14 10° ESE visible
15 May - 06:57:26 10° WSW 07:03:46 26° SSW 07:09:31 10° SE visible
15 May - 08:50:08 10° SW 08:51:31 11° SSW 08:52:53 10° SSW night (unlit)
16 May - 01:22:34 10° SSW 01:27:16 17° SSE 01:32:13 10° ESE daylight
16 May - 03:08:41 10° SW 03:15:28 31° SSE 03:22:26 10° ESE visible
16 May - 04:56:49 10° WSW 05:04:03 35° S 05:11:02 10° ESE visible
16 May - 06:46:12 10° WSW 06:52:26 25° SSW 06:58:13 10° SSE visible
17 May - 01:11:01 10° SSW 01:15:56 19° SSE 01:21:10 10° ESE daylight
17 May - 02:57:23 10° SW 03:04:08 32° S 03:11:13 10° ESE visible
17 May - 04:45:33 10° WSW 04:52:43 34° S 04:59:46 10° SE visible
17 May - 06:35:02 10° WSW 06:41:07 23° SSW 06:46:50 10° SSE visible
18 May - 00:59:35 10° SSW 01:04:36 20° SSE 01:10:03 10° ESE daylight
18 May - 02:46:08 10° SW 02:52:49 33° S 02:59:56 10° ESE daylight
18 May - 04:34:20 10° WSW 04:41:24 34° S 04:48:28 10° SE visible
18 May - 06:23:54 10° WSW 06:29:46 22° SSW 06:35:23 10° SSE visible
19 May - 00:48:14 10° SSW 00:53:17 21° SSE 00:58:52 10° ESE daylight
19 May - 02:34:55 10° SW 02:41:30 33° S 02:48:38 10° ESE daylight
19 May - 04:23:09 10° WSW 04:30:04 32° S 04:37:06 10° SE visible
19 May - 06:12:51 10° WSW 06:18:25 20° SSW 06:23:49 10° SSE visible
20 May - 00:36:57 10° SSW 00:41:59 22° SSE 00:47:39 10° ESE daylight
20 May - 02:23:46 10° SW 02:30:12 33° S 02:37:17 10° ESE daylight
20 May - 04:12:02 10° WSW 04:18:44 31° S 04:25:42 10° SE visible
20 May - 06:01:53 10° WSW 06:07:04 18° SSW 06:12:10 10° SSE visible
21 May - 00:25:44 10° SSW 00:30:43 23° SSE 00:36:23 10° ESE daylight
21 May - 02:12:40 10° WSW 02:18:55 33° S 02:25:55 10° ESE daylight
21 May - 04:00:57 10° WSW 04:07:25 29° SSW 04:14:14 10° SE visible
21 May - 05:51:03 10° WSW 05:55:42 16° SSW 06:00:21 10° S visible
